Wind_Speed
49 49 48 48 47 46 46 46 45 44 43 43 42 41 41 41 41 41 41 41 41 40 40 39 39 38 38 37 37 37 36 36 36 36 36 36 36 36
50 51 49 49 48 48 48 47 47 46 45 44 44 43 43 43 43 43 43 43 43 42 42 41 41 40 40 40 39 39 39 39 39 38 38 38 38 38
49 50 51 50 50 50 49 48 48 48 48 46 46 43 43 44 44 43 44 44 44 44 44 43 43 42 43 42 42 41 41 41 40 40 40 40 40 40
49 49 50 51 51 51 51 49 49 48 48 47 47 46 45 46 45 44 44 45 45 46 45 45 44 44 44 43 43 43 43 42 42 42 42 41 41 41
49 49 50 51 51 51 51 51 50 50 49 48 47 47 46 47 47 46 45 45 45 46 47 46 46 45 46 45 45 45 45 44 44 43 43 43 42 43
50 50 50 52 52 51 51 52 52 51 51 50 48 48 47 46 47 47 47 46 46 46 47 47 48 47 47 46 45 45 45 45 45 45 45 44 44 44
51 50 50 50 50 51 52 52 53 53 52 51 51 50 49 48 48 47 48 47 47 46 47 47 48 48 48 47 46 46 46 46 46 46 46 46 46 46
53 52 51 52 52 52 52 53 53 53 53 52 52 52 51 50 51 50 50 50 49 47 47 47 49 49 49 48 48 48 48 48 48 48 48 48 48 48
53 52 50 51 52 53 53 53 53 54 53 53 52 52 52 52 53 53 53 52 52 50 50 49 50 51 51 50 49 49 49 49 49 49 49 49 49 49
52 52 51 51 52 53 53 53 53 54 54 54 53 52 53 53 53 53 53 52 53 53 53 51 51 51 51 51 51 51 50 50 51 51 51 51 51 51
51 52 52 53 53 53 53 52 52 53 54 54 54 54 54 54 54 54 53 52 51 52 53 53 52 52 51 51 52 52 52 52 53 53 53 53 53 52
49 51 51 52 52 52 52 52 52 53 53 54 54 54 55 55 54 52 52 53 53 52 52 53 53 52 51 51 52 52 52 53 54 54 55 55 54 54
46 47 48 49 50 50 51 51 52 52 52 52 53 53 53 53 53 53 53 53 54 53 53 54 53 52 51 51 52 52 53 54 55 54 55 55 55 55
45 46 47 48 49 49 50 50 50 51 52 52 51 51 52 51 51 52 52 52 52 52 53 53 53 52 52 52 52 52 53 54 55 55 56 56 55 54
45 47 48 48 49 49 49 48 48 49 50 50 50 50 50 51 50 51 51 51 51 52 53 53 53 53 53 53 53 53 53 53 53 54 55 55 54 54
44 46 48 49 49 48 48 48 48 48 48 48 49 49 49 49 49 51 51 52 52 52 53 54 55 55 54 54 54 54 54 53 52 53 53 53 53 53
43 44 45 47 48 48 47 46 47 48 48 49 49 49 49 49 50 51 52 53 53 53 53 55 56 56 55 55 55 54 54 54 52 52 52 52 52 53
41 42 43 44 45 46 47 47 47 48 48 49 49 49 49 50 50 51 52 53 53 54 54 55 55 56 56 56 55 55 54 53 53 52 53 53 53 54
40 41 41 42 43 44 45 46 46 47 47 47 48 48 49 50 50 51 52 52 52 53 53 54 54 54 55 54 53 54 54 53 52 52 53 54 54 54
39 39 39 40 41 42 42 43 44 45 45 46 47 48 49 50 50 51 51 51 51 51 51 51 51 52 52 52 52 51 52 51 51 51 52 52 52 52
37 38 38 38 39 39 40 41 43 44 44 45 46 47 47 48 49 49 49 49 49 49 49 49 50 50 50 50 49 48 50 50 50 50 51 51 50 50
34 35 36 36 37 37 38 39 40 42 43 44 44 45 46 46 46 46 46 46 46 46 46 47 47 48 49 48 48 47 47 48 49 48 48 48 49 49
34 34 34 35 35 35 36 38 39 40 41 42 42 43 44 44 44 44 44 44 44 45 45 45 46 46 46 46 47 46 46 46 47 47 47 47 46 46
Wind_Direction
246 245 245 245 245 247 247 248 248 248 248 248 249 250 250 250 250 251 252 254 256 258 260 262 264 267 267 268 270 272 274 278 279 280 281 282 284 285
246 246 245 245 245 247 247 248 248 248 249 249 250 251 251 252 252 252 253 255 256 258 260 262 264 265 266 267 269 270 273 276 279 279 280 282 283 284
247 247 246 246 246 246 247 247 248 248 248 248 249 250 252 251 252 253 254 255 257 258 260 262 263 264 265 267 268 270 272 274 276 277 279 281 282 283
247 248 248 247 246 247 247 248 248 249 249 249 249 249 251 252 252 253 255 256 257 259 261 262 263 264 264 267 268 269 271 272 274 276 278 279 281 282
248 250 249 248 248 248 248 248 248 249 250 250 250 251 252 253 254 254 256 257 259 260 261 262 262 263 264 266 267 268 269 271 272 275 277 279 280 282
248 249 250 250 249 249 249 248 248 249 250 251 251 252 252 253 254 255 257 258 260 261 261 261 262 263 264 265 266 268 269 270 272 274 276 277 279 281
248 248 250 249 249 249 249 249 249 250 250 251 253 253 253 254 254 255 257 259 260 261 262 262 262 262 263 264 265 266 267 269 271 273 275 277 278 280
247 249 251 250 249 249 250 249 250 251 251 252 253 254 254 255 255 257 258 259 259 261 262 262 263 263 262 263 264 265 267 268 270 272 274 276 277 279
248 250 250 249 248 250 250 250 250 251 251 252 253 254 255 256 256 257 258 259 259 259 261 263 264 264 264 263 264 265 266 267 270 271 273 275 277 279
248 249 249 250 250 250 251 251 251 251 252 253 253 255 255 255 256 257 257 258 260 261 262 264 264 264 265 264 263 265 267 268 270 272 273 275 277 279
248 249 249 250 250 250 250 250 251 251 251 252 253 254 255 255 256 257 257 257 259 260 262 263 264 265 265 266 265 266 267 269 270 272 274 275 277 279
250 250 250 250 249 250 250 250 250 252 252 252 253 254 254 255 255 256 257 257 259 260 261 263 264 265 266 266 266 266 268 270 271 273 274 275 277 279
250 250 249 249 249 250 250 251 251 252 253 253 253 254 254 254 255 255 256 258 259 261 261 262 263 264 266 266 267 267 269 271 272 273 274 275 276 277
250 250 249 249 250 251 252 252 252 253 253 253 254 254 255 255 255 255 256 258 260 261 261 261 262 263 266 267 266 267 269 272 273 274 275 275 277 278
252 251 250 249 250 251 252 252 253 253 253 252 253 255 256 255 254 254 256 258 259 260 262 262 263 264 266 268 268 268 270 272 273 274 275 276 277 278
252 252 250 249 250 250 252 253 253 252 252 252 253 254 255 255 255 255 257 258 259 261 263 263 264 265 266 268 270 270 271 272 273 275 275 276 277 277
253 252 250 249 249 249 250 251 252 253 253 254 254 254 254 255 256 257 259 260 262 263 263 264 265 266 267 268 270 270 272 272 273 274 275 275 276 277
254 253 252 251 250 250 251 252 253 253 253 254 254 254 254 256 258 260 260 261 263 263 263 264 266 267 268 268 269 271 272 272 272 273 274 275 276 277
256 254 253 252 251 251 251 252 253 254 254 254 255 254 254 256 257 259 261 261 262 263 263 264 265 267 268 269 271 271 272 272 272 273 274 275 277 278
256 254 254 254 253 253 252 252 253 254 254 254 254 254 254 255 257 259 261 262 263 263 264 264 265 267 269 270 271 271 272 273 272 273 274 276 277 278
256 255 254 253 253 254 254 254 253 254 254 253 254 254 254 255 257 259 261 262 264 265 265 265 266 268 270 271 271 271 271 272 273 274 275 276 277 277
255 255 253 253 253 252 253 254 255 255 255 254 254 254 255 256 258 259 262 264 265 265 266 267 268 269 269 270 270 271 272 272 274 275 276 278 278 279
256 254 253 253 253 253 254 256 257 256 256 255 255 255 256 258 259 261 262 264 266 267 268 268 268 268 269 269 270 271 272 273 274 276 277 278 278 279
Height
5680 5684 5688 5692 5696 5700 5703 5707 5711 5714 5719 5722 5725 5727 5730 5733 5736 5738 5741 5743 5745 5747 5749 5750 5751 5752 5753 5753 5753 5753 5753 5752 5751 5751 5750 5749 5747 5746
5667 5671 5676 5680 5683 5687 5691 5695 5698 5702 5706 5711 5713 5717 5719 5722 5724 5727 5729 5732 5734 5736 5738 5739 5740 5741 5742 5743 5743 5743 5743 5743 5742 5741 5740 5739 5738 5737
5654 5658 5663 5667 5670 5675 5678 5682 5685 5689 5694 5698 5701 5704 5707 5710 5712 5715 5717 5720 5722 5724 5726 5728 5729 5730 5731 5732 5732 5733 5733 5733 5732 5731 5730 5729 5728 5726
5641 5645 5649 5653 5658 5662 5666 5670 5673 5677 5681 5685 5689 5692 5695 5698 5700 5703 5705 5708 5710 5712 5714 5716 5717 5718 5719 5720 5721 5721 5722 5721 5721 5720 5719 5719 5717 5715
5628 5632 5636 5639 5644 5648 5652 5656 5660 5664 5668 5672 5676 5679 5683 5685 5688 5691 5693 5695 5698 5700 5701 5703 5704 5706 5707 5708 5709 5709 5710 5710 5710 5709 5708 5707 5706 5704
5615 5619 5622 5626 5631 5635 5638 5643 5647 5651 5655 5658 5663 5666 5670 5673 5675 5678 5681 5683 5685 5687 5688 5690 5691 5693 5694 5695 5697 5697 5697 5697 5697 5697 5696 5695 5694 5693
5601 5605 5608 5612 5616 5620 5624 5629 5633 5637 5641 5645 5649 5653 5657 5660 5663 5666 5668 5670 5672 5674 5676 5677 5679 5680 5681 5682 5683 5684 5685 5685 5684 5684 5684 5683 5682 5681
5587 5591 5594 5598 5602 5606 5610 5615 5619 5623 5628 5632 5636 5640 5644 5647 5650 5652 5655 5657 5660 5662 5663 5664 5665 5667 5668 5669 5671 5671 5672 5672 5671 5671 5671 5671 5670 5668
5573 5576 5580 5583 5587 5592 5596 5600 5604 5609 5614 5618 5622 5626 5630 5634 5637 5639 5641 5643 5646 5648 5649 5651 5652 5653 5655 5656 5657 5658 5658 5658 5658 5658 5658 5657 5656 5655
5559 5562 5565 5569 5573 5578 5582 5586 5590 5595 5601 5605 5609 5613 5615 5618 5621 5624 5627 5629 5632 5634 5635 5638 5639 5640 5641 5642 5643 5644 5644 5644 5645 5644 5644 5643 5643 5641
5544 5547 5551 5555 5560 5564 5568 5573 5577 5581 5585 5589 5593 5597 5600 5603 5606 5610 5612 5615 5618 5620 5621 5623 5625 5626 5627 5628 5629 5629 5630 5630 5630 5630 5630 5629 5628 5627
5531 5535 5538 5542 5546 5549 5553 5558 5563 5567 5571 5575 5578 5582 5585 5589 5592 5595 5598 5601 5603 5606 5607 5609 5610 5611 5613 5615 5615 5615 5615 5615 5616 5615 5615 5614 5613 5612
5518 5522 5525 5529 5532 5536 5540 5545 5550 5553 5556 5560 5563 5567 5570 5574 5577 5580 5584 5586 5589 5591 5593 5594 5595 5596 5597 5600 5601 5601 5601 5601 5601 5600 5600 5599 5598 5597
5506 5510 5513 5516 5519 5523 5527 5531 5535 5538 5542 5546 5549 5553 5556 5560 5563 5566 5569 5571 5574 5576 5577 5579 5581 5582 5583 5585 5587 5587 5586 5586 5586 5585 5585 5584 5582 5581
5493 5497 5500 5503 5507 5510 5514 5517 5521 5524 5528 5532 5536 5540 5543 5546 5549 5551 5554 5556 5559 5560 5562 5564 5565 5567 5568 5570 5572 5572 5572 5572 5570 5570 5569 5568 5567 5566
5480 5483 5486 5490 5493 5497 5501 5504 5507 5511 5514 5519 5523 5526 5529 5532 5534 5537 5540 5542 5544 5546 5547 5548 5550 5551 5553 5554 5555 5556 5556 5556 5556 5555 5554 5553 5552 5551
5468 5470 5473 5476 5480 5484 5487 5491 5494 5497 5501 5505 5509 5512 5515 5518 5521 5523 5525 5527 5529 5532 5533 5533 5534 5536 5538 5539 5540 5541 5540 5541 5540 5540 5539 5539 5538 5537
5456 5458 5461 5464 5467 5471 5475 5478 5481 5484 5487 5491 5495 5498 5501 5504 5507 5509 5511 5512 5514 5516 5518 5519 5519 5521 5522 5524 5524 5525 5525 5525 5525 5524 5523 5523 5524 5523
5446 5448 5450 5453 5456 5459 5463 5466 5468 5471 5474 5477 5481 5484 5487 5490 5492 5494 5496 5497 5499 5501 5502 5504 5505 5506 5508 5510 5511 5509 5508 5509 5509 5509 5508 5508 5508 5508
5436 5438 5440 5442 5445 5448 5451 5454 5456 5459 5461 5464 5467 5470 5473 5476 5478 5480 5481 5483 5485 5487 5488 5489 5490 5491 5493 5495 5495 5495 5493 5493 5493 5493 5493 5492 5491 5491
5427 5428 5430 5432 5435 5437 5440 5442 5445 5447 5449 5452 5454 5457 5459 5462 5464 5466 5468 5469 5471 5473 5474 5476 5477 5477 5477 5478 5479 5480 5479 5478 5477 5477 5477 5477 5476 5476
5418 5419 5421 5423 5425 5427 5429 5431 5433 5435 5437 5439 5441 5444 5446 5449 5451 5453 5455 5457 5458 5459 5461 5462 5462 5462 5463 5463 5464 5465 5465 5464 5463 5462 5462 5461 5460 5460
5409 5410 5412 5413 5415 5417 5419 5420 5421 5423 5425 5427 5429 5432 5434 5436 5438 5440 5442 5443 5445 5446 5447 5448 5449 5449 5449 5449 5450 5451 5451 5450 5449 5449 5449 5447 5446 5445